Location: Hurecourt
(47.9030°N, 6.0653°E)
Time: 20:38:09
(UTC+00:00)

SL-8 R/B - Pass Details

Date: 14 July 2020
Orbit: 656 x 667 km, 48.4° (Epoch: 14 August)

Event Time Altitude Azimuth Distance (km) Brightness Sun altitude
Exits shadow 01:46:36 18° 247° (WSW) 1,600 5.2 -15.0°
Maximum altitude 01:50:08 77° 163° (SSE) 685 3.6 -14.7°
Drops below altitude 10° 01:54:56 10° 79° (ENE) 2,080 6.9 -14.3°
Sets 01:57:17 0° 78° (ENE) 2,992 7.8 -14.1°
